[ hide orbit diagram ]
For accurate long-term ephemerides, please instead use our Horizons system.This orbit viewer was implemented using two-body methods, and hence should not be used for determining accurate long-term trajectories (over several years or decades) or planetary encounter circumstances.
Orbital Elements at Epoch 2459200.5 (2020-Dec-17.0) TDB
Reference: JPL 31 (heliocentric ecliptic J2000)
Element | Value | Uncertainty (1-sigma) | Units |
e | .09034946997079182 | 4.847e-08 | |
a | 3.054581346075684 | 1.7512e-08 | au |
q | 2.778601540475078 | 1.5661e-07 | au |
i | 11.10790490050805 | 4.1959e-06 | deg |
node | 44.43759162561141 | 2.1032e-05 | deg |
peri | 321.1927068097626 | 2.9307e-05 | deg |
M | 343.9545719597115 | 2.1084e-05 | deg |
tp | 2459287.411005840657 (2021-Mar-13.91100584) | 0.00011438 | TDB |
period | 1949.961199169987 5.34 | 1.6769e-05 4.591e-08 | d yr |
n | .184619058139842 | 1.5876e-09 | deg/d |
Q | 3.33056115167629 | 1.9094e-08 | au |
|
| | Orbit Determination Parameters
Additional Information
|
[ hide covariance matrix ]
Orbital Elements at Epoch 2457015.5 (2014-Dec-24.0) TDB
Reference: JPL 31 (heliocentric ecliptic J2000)
Element | Value | Uncertainty (1-sigma) | Units |
e | .09456058711276777 | 4.8417e-08 | |
q | 2.765108061420628 | 1.5723e-07 | au |
tp | 2457340.705197182302 (2015-Nov-14.20519718) | 0.00010663 | TDB |
node | 44.60020071864004 | 2.0961e-05 | deg |
peri | 321.7577912154356 | 2.8602e-05 | deg |
i | 11.13308917292701 | 4.2033e-06 | deg |
|
| | Orbit Determination Parameters
Additional Information
|
Orbit Covariance (6×6)
|
|
e |
q |
tp |
node |
peri |
i |
e |
2.344205008831929E-15 |
-7.584651116109038E-15 |
-5.099977075447632E-13 |
4.516903340536553E-15 |
-5.604979905457767E-14 |
-2.182593315020138E-15 |
q |
-7.584651116109038E-15 |
2.472183904005715E-14 |
1.694876997511936E-12 |
-1.377371709114137E-14 |
1.820298579818588E-13 |
7.167392605317945E-15 |
tp |
-5.099977075447632E-13 |
1.694876997511936E-12 |
1.136914377389217E-8 |
-3.049224206578392E-12 |
2.095814041729639E-9 |
2.994675400617797E-12 |
node |
4.516903340536553E-15 |
-1.377371709114137E-14 |
-3.049224206578392E-12 |
4.393536517041688E-10 |
-4.312450379825413E-10 |
-1.70732582117459E-11 |
peri |
-5.604979905457767E-14 |
1.820298579818588E-13 |
2.095814041729639E-9 |
-4.312450379825413E-10 |
8.181013086516519E-10 |
1.725842202013926E-11 |
i |
-2.182593315020138E-15 |
7.167392605317945E-15 |
2.994675400617797E-12 |
-1.70732582117459E-11 |
1.725842202013926E-11 |
1.766733672707679E-11 |
|
Physical Parameter Table
Parameter |
Symbol |
Value |
Units |
Sigma |
Reference |
Notes |
absolute magnitude |
H |
12.08 |
|
n/a |
E2021B10 |
|
diameter |
diameter |
14.494 |
km |
0.200 |
urn:nasa:pds:neowise_diameters_albedos::2.0[mainbelt] (http://adsabs.harvard.edu/abs/2014ApJ...791..121M) |
|
rotation period |
rot_per |
4.9349 |
h |
n/a |
LCDB (Rev. 2020-October); Warner et al., 2009 |
Result based on less than full coverage, so that the period may be wrong by 30 percent or so. Published Reference List: [Behrend, R. (2016) Observatoire de Geneve web site, http://obswww.unige.ch/~behrend/page_cou.html] |
geometric albedo |
albedo |
0.135 |
|
0.018 |
urn:nasa:pds:neowise_diameters_albedos::2.0[mainbelt] (http://adsabs.harvard.edu/abs/2012ApJ...759L...8M) |
|
|
4410 Kamuimintara (1989 YA) Discovered 1989-Dec-17 by Ueda and Kaneda at Kushiro |
Reference: DISCOVERY.DB | Last Updated: 2003-08-29 |
|
[ show close-approach data ]
Alternate Designations
1989 YA = 1973 UN2 = 1973 YT = 1976 JK1 = 1978 UH = 1987 KS3 = 2019 HH5 |
|
|